| time (UTC) | temp F | wind direction | speed MPH | gust MPH | rain 1hr in | rain 24hr in | rain mn in | humidity % | barometer mb |
| 20260503013059 | 53 | 328 | 0.0 | 1.0 | 0.00 | 0.00 | 0.00 | 55 | 1015.5 |
| 20260503011557 | 53 | 323 | 0.0 | 5.0 | 0.00 | 0.00 | 0.00 | 55 | 1015.5 |
| 20260503010055 | 54 | 345 | 0.0 | 3.0 | 0.00 | 0.00 | 0.00 | 55 | 1015.2 |
| 20260503004554 | 54 | 321 | 0.0 | 5.0 | 0.00 | 0.00 | 0.00 | 53 | 1014.9 |
| 20260503003103 | 55 | 35 | 0.0 | 5.0 | 0.00 | 0.00 | 0.00 | 51 | 1014.9 |
| 20260503001607 | 55 | 31 | 0.0 | 4.0 | 0.00 | 0.00 | 0.00 | 51 | 1014.6 |
| 20260503000051 | 55 | 20 | 1.0 | 5.0 | 0.00 | 0.00 | 0.00 | 50 | 1014.5 |
| 20260502234550 | 56 | 345 | 0.0 | 3.0 | 0.00 | 0.00 | 0.00 | 49 | 1014.4 |
| 20260502233044 | 56 | 354 | 0.0 | 2.0 | 0.00 | 0.00 | 0.00 | 48 | 1014.2 |
| 20260502231642 | 56 | 250 | 0.0 | 3.0 | 0.00 | 0.00 | 0.00 | 47 | 1014.1 |
| 20260502230041 | 57 | 284 | 2.0 | 6.0 | 0.00 | 0.00 | 0.00 | 46 | 1014.1 |
| 20260502224539 | 58 | 49 | 2.0 | 6.0 | 0.00 | 0.00 | 0.00 | 44 | 1014.0 |
| 20260502223037 | 58 | 315 | 1.0 | 6.0 | 0.00 | 0.00 | 0.00 | 44 | 1013.9 |
| 20260502221540 | 59 | 231 | 0.0 | 7.0 | 0.00 | 0.00 | 0.00 | 45 | 1013.9 |
| 20260502220035 | 59 | 283 | 1.0 | 8.0 | 0.00 | 0.00 | 0.00 | 44 | 1014.0 |
| 20260502214532 | 60 | 5 | 4.0 | 10.0 | 0.00 | 0.00 | 0.00 | 41 | 1014.1 |
| 20260502213030 | 59 | 220 | 0.0 | 4.0 | 0.00 | 0.00 | 0.00 | 44 | 1013.7 |
| 20260502211527 | 59 | 358 | 1.0 | 7.0 | 0.00 | 0.00 | 0.00 | 44 | 1013.7 |
| 20260502210025 | 60 | 300 | 1.0 | 8.0 | 0.00 | 0.00 | 0.00 | 44 | 1013.7 |
| 20260502204524 | 60 | 337 | 3.0 | 11.0 | 0.00 | 0.00 | 0.00 | 40 | 1013.6 |
| 20260502203025 | 61 | 78 | 2.0 | 5.0 | 0.00 | 0.00 | 0.00 | 42 | 1013.5 |
| 20260502201524 | 59 | 311 | 3.0 | 9.0 | 0.00 | 0.00 | 0.00 | 43 | 1013.7 |
| 20260502200016 | 60 | 134 | 3.0 | 10.0 | 0.00 | 0.00 | 0.00 | 43 | 1013.7 |
| 20260502194513 | 60 | 8 | 3.0 | 7.0 | 0.00 | 0.00 | 0.00 | 43 | 1013.9 |
| 20260502193010 | 60 | 299 | 3.0 | 8.0 | 0.00 | 0.00 | 0.00 | 43 | 1014.1 |
| 20260502191505 | 59 | 268 | 3.0 | 10.0 | 0.00 | 0.00 | 0.00 | 41 | 1014.4 |
| 20260502190004 | 60 | 273 | 2.0 | 13.0 | 0.00 | 0.00 | 0.00 | 44 | 1014.6 |
| 20260502184502 | 61 | 70 | 2.0 | 9.0 | 0.00 | 0.00 | 0.00 | 44 | 1014.9 |
| 20260502183105 | 61 | 181 | 2.0 | 6.0 | 0.00 | 0.00 | 0.00 | 42 | 1015.1 |
| 20260502181608 | 61 | 22 | 1.0 | 5.0 | 0.00 | 0.00 | 0.00 | 43 | 1015.3 |
| 20260502163042 | 57 | 353 | 0.0 | 3.0 | 0.00 | 0.00 | 0.00 | 53 | 1016.4 |
| 20260502161535 | 56 | 43 | 0.0 | 7.0 | 0.00 | 0.00 | 0.00 | 52 | 1016.5 |
| 20260502151518 | 55 | 30 | 3.0 | 10.0 | 0.00 | 0.00 | 0.00 | 58 | 1016.9 |
| 20260502130155 | 51 | 30 | 4.0 | 9.0 | 0.00 | 0.00 | 0.00 | 69 | 1016.5 |
| 20260502123100 | 50 | 319 | 1.0 | 9.0 | 0.00 | 0.00 | 0.00 | 71 | 1016.4 |
| 20260502121548 | 50 | 358 | 3.0 | 8.0 | 0.00 | 0.00 | 0.00 | 71 | 1016.4 |
| 20260502114546 | 50 | 3 | 3.0 | 8.0 | 0.00 | 0.00 | 0.00 | 71 | 1016.5 |
| 20260502113044 | 50 | 311 | 3.0 | 6.0 | 0.00 | 0.00 | 0.00 | 71 | 1016.6 |
| 20260502111543 | 0 | 0.0 | 0.0 | 0.00 | 0.00 | 0.00 | 1016.5 | ||
| 20260502110033 | 0 | 0.0 | 0.0 | 0.00 | 0.00 | 0.00 | 1016.3 | ||
| 20260502104535 | 0 | 0.0 | 0.0 | 0.00 | 0.00 | 0.00 | 1016.1 | ||
| 20260502103021 | 0 | 314 | 2.0 | 6.0 | 0.00 | 0.00 | 0.00 | 71 | 1016.0 |
| 20260502101516 | 50 | 297 | 0.0 | 8.0 | 0.00 | 0.00 | 0.00 | 72 | 1015.8 |
| 20260502091505 | 49 | 61 | 1.0 | 3.0 | 0.00 | 0.00 | 0.00 | 80 | 1015.0 |
| 20260502080104 | 48 | 260 | 0.0 | 0.0 | 0.00 | 0.00 | 0.00 | 91 | 1014.8 |
| 20260502070050 | 50 | 252 | 0.0 | 0.0 | 0.00 | 0.00 | 0.00 | 90 | 1014.7 |
| 20260502064542 | 50 | 252 | 0.0 | 0.0 | 0.00 | 0.00 | 0.00 | 89 | 1014.5 |
| 20260502063037 | 51 | 265 | 0.0 | 1.0 | 0.00 | 0.00 | 0.00 | 88 | 1014.6 |
| 20260502061532 | 51 | 201 | 0.0 | 0.0 | 0.00 | 0.00 | 0.00 | 87 | 1014.7 |
| 20260502060031 | 52 | 201 | 0.0 | 0.0 | 0.00 | 0.00 | 0.00 | 85 | 1014.7 |
| 20260502054525 | 52 | 201 | 0.0 | 0.0 | 0.00 | 0.00 | 0.00 | 84 | 1015.0 |
| 20260502053023 | 53 | 343 | 0.0 | 0.0 | 0.00 | 0.00 | 0.00 | 82 | 1014.9 |
| 20260502051525 | 53 | 289 | 0.0 | 0.0 | 0.00 | 0.00 | 0.00 | 81 | 1015.1 |
| 20260502050016 | 54 | 243 | 0.0 | 2.0 | 0.00 | 0.00 | 0.00 | 80 | 1015.3 |
| 20260502044511 | 54 | 287 | 0.0 | 3.0 | 0.00 | 0.00 | 0.00 | 78 | 1015.4 |
| 20260502043013 | 55 | 167 | 0.0 | 3.0 | 0.00 | 0.00 | 0.00 | 76 | 1015.0 |
| 20260502041503 | 56 | 246 | 1.0 | 3.0 | 0.00 | 0.00 | 0.00 | 75 | 1014.8 |
| 20260502040058 | 56 | 203 | 2.0 | 5.0 | 0.00 | 0.00 | 0.00 | 74 | 1014.6 |
| 20260502034557 | 56 | 201 | 4.0 | 10.0 | 0.00 | 0.00 | 0.00 | 75 | 1014.5 |
| 20260502033103 | 56 | 236 | 4.0 | 8.0 | 0.00 | 0.00 | 0.00 | 74 | 1014.3 |
| 20260502031553 | 57 | 214 | 3.0 | 10.0 | 0.00 | 0.00 | 0.00 | 74 | 1014.3 |
| 20260502030058 | 57 | 176 | 2.0 | 8.0 | 0.00 | 0.00 | 0.00 | 75 | 1014.1 |
| 20260502024548 | 57 | 215 | 4.0 | 6.0 | 0.00 | 0.00 | 0.00 | 76 | 1014.3 |
| 20260502023106 | 57 | 236 | 1.0 | 9.0 | 0.00 | 0.00 | 0.00 | 77 | 1014.3 |
| 20260502021547 | 57 | 192 | 2.0 | 8.0 | 0.00 | 0.00 | 0.00 | 77 | 1014.4 |
| 20260502020043 | 57 | 195 | 5.0 | 12.0 | 0.00 | 0.00 | 0.00 | 75 | 1014.5 |
| 20260502014542 | 57 | 167 | 3.0 | 7.0 | 0.00 | 0.00 | 0.00 | 72 | 1014.3 |